| time (UTC) | temp F | wind direction | speed MPH | gust MPH | rain 1hr in | rain 24hr in | rain mn in | humidity % | barometer mb |
| 20260503023025 | 60 | 78 | 1.0 | 4.0 | 0.00 | 0.00 | 0.00 | 45 | 1016.4 |
| 20260503021532 | 60 | 88 | 3.0 | 7.0 | 0.00 | 0.00 | 0.00 | 46 | 1016.4 |
| 20260503020027 | 60 | 86 | 4.0 | 7.0 | 0.00 | 0.00 | 0.00 | 46 | 1016.2 |
| 20260503014527 | 61 | 95 | 3.0 | 5.0 | 0.00 | 0.00 | 0.00 | 45 | 1016.2 |
| 20260503013034 | 62 | 97 | 5.0 | 9.0 | 0.00 | 0.00 | 0.00 | 44 | 1016.3 |
| 20260503011528 | 63 | 88 | 5.0 | 10.0 | 0.00 | 0.00 | 0.00 | 43 | 1016.5 |
| 20260503010031 | 63 | 51 | 6.0 | 10.0 | 0.00 | 0.00 | 0.00 | 44 | 1016.6 |
| 20260503004525 | 62 | 55 | 5.0 | 9.0 | 0.00 | 0.00 | 0.00 | 44 | 1016.4 |
| 20260503003036 | 63 | 92 | 1.0 | 6.0 | 0.00 | 0.00 | 0.00 | 42 | 1017.0 |
| 20260503001529 | 63 | 0 | 0.0 | 4.0 | 0.00 | 0.00 | 0.00 | 43 | 1017.1 |
| 20260503000028 | 63 | 46 | 2.0 | 6.0 | 0.00 | 0.00 | 0.00 | 43 | 1017.2 |
| 20260502234533 | 64 | 291 | 1.0 | 8.0 | 0.00 | 0.00 | 0.00 | 40 | 1017.2 |
| 20260502233027 | 64 | 20 | 3.0 | 7.0 | 0.00 | 0.00 | 0.00 | 41 | 1017.3 |
| 20260502231528 | 64 | 202 | 5.0 | 8.0 | 0.00 | 0.00 | 0.00 | 40 | 1017.5 |
| 20260502230032 | 64 | 241 | 6.0 | 14.0 | 0.00 | 0.00 | 0.00 | 40 | 1017.6 |
| 20260502224530 | 65 | 226 | 6.0 | 11.0 | 0.00 | 0.00 | 0.00 | 40 | 1017.9 |
| 20260502223028 | 65 | 115 | 3.0 | 10.0 | 0.00 | 0.00 | 0.00 | 40 | 1018.1 |
| 20260502221528 | 64 | 32 | 3.0 | 13.0 | 0.00 | 0.00 | 0.00 | 43 | 1018.3 |
| 20260502220027 | 63 | 333 | 2.0 | 6.0 | 0.00 | 0.00 | 0.00 | 44 | 1018.6 |
| 20260502214529 | 62 | 321 | 5.0 | 15.0 | 0.00 | 0.00 | 0.00 | 44 | 1018.7 |
| 20260502213037 | 62 | 22 | 3.0 | 8.0 | 0.00 | 0.00 | 0.00 | 43 | 1018.9 |
| 20260502211526 | 62 | 275 | 3.0 | 10.0 | 0.00 | 0.00 | 0.00 | 43 | 1019.1 |
| 20260502210028 | 62 | 263 | 2.0 | 8.0 | 0.00 | 0.00 | 0.00 | 44 | 1019.4 |
| 20260502204526 | 62 | 248 | 3.0 | 13.0 | 0.00 | 0.00 | 0.00 | 45 | 1019.4 |
| 20260502203030 | 61 | 251 | 5.0 | 10.0 | 0.00 | 0.00 | 0.00 | 45 | 1019.5 |
| 20260502201536 | 61 | 193 | 4.0 | 10.0 | 0.00 | 0.00 | 0.00 | 45 | 1019.6 |
| 20260502200027 | 62 | 307 | 6.0 | 11.0 | 0.00 | 0.00 | 0.00 | 44 | 1019.7 |
| 20260502194530 | 62 | 23 | 2.0 | 10.0 | 0.00 | 0.00 | 0.00 | 45 | 1019.8 |
| 20260502193027 | 61 | 313 | 5.0 | 12.0 | 0.00 | 0.00 | 0.00 | 46 | 1020.0 |
| 20260502191529 | 59 | 257 | 9.0 | 13.0 | 0.00 | 0.00 | 0.00 | 48 | 1020.3 |
| 20260502190028 | 59 | 310 | 13.0 | 18.0 | 0.00 | 0.00 | 0.00 | 49 | 1020.4 |
| 20260502184535 | 59 | 14 | 4.0 | 11.0 | 0.00 | 0.00 | 0.00 | 49 | 1020.5 |
| 20260502183030 | 59 | 303 | 11.0 | 16.0 | 0.00 | 0.00 | 0.00 | 48 | 1020.5 |
| 20260502181526 | 59 | 17 | 5.0 | 13.0 | 0.00 | 0.00 | 0.00 | 47 | 1020.5 |
| 20260502163026 | 58 | 352 | 14.0 | 24.0 | 0.00 | 0.00 | 0.00 | 51 | 1020.4 |
| 20260502161531 | 57 | 312 | 18.0 | 26.0 | 0.00 | 0.00 | 0.00 | 53 | 1020.5 |
| 20260502151526 | 55 | 320 | 4.0 | 10.0 | 0.00 | 0.00 | 0.00 | 55 | 1020.5 |
| 20260502123027 | 51 | 37 | 11.0 | 15.0 | 0.00 | 0.00 | 0.00 | 54 | 1019.7 |
| 20260502121530 | 51 | 46 | 11.0 | 20.0 | 0.00 | 0.00 | 0.00 | 54 | 1019.4 |
| 20260502114529 | 51 | 49 | 11.0 | 21.0 | 0.00 | 0.00 | 0.00 | 54 | 1018.9 |
| 20260502113029 | 51 | 86 | 14.0 | 22.0 | 0.00 | 0.00 | 0.00 | 53 | 1018.8 |
| 20260502111526 | 52 | 5 | 15.0 | 24.0 | 0.00 | 0.00 | 0.00 | 54 | 1018.7 |
| 20260502110026 | 52 | 69 | 16.0 | 26.0 | 0.00 | 0.00 | 0.00 | 53 | 1018.4 |
| 20260502104533 | 52 | 103 | 12.0 | 22.0 | 0.00 | 0.00 | 0.00 | 52 | 1017.9 |
| 20260502103027 | 52 | 59 | 18.0 | 23.0 | 0.00 | 0.00 | 0.00 | 51 | 1017.8 |
| 20260502101527 | 53 | 67 | 17.0 | 24.0 | 0.00 | 0.00 | 0.00 | 50 | 1017.5 |
| 20260502091531 | 52 | 30 | 8.0 | 16.0 | 0.00 | 0.00 | 0.00 | 48 | 1016.8 |
| 20260502071530 | 51 | 346 | 6.0 | 10.0 | 0.00 | 0.00 | 0.00 | 47 | 1016.5 |
| 20260502070050 | 51 | 5 | 6.0 | 10.0 | 0.00 | 0.00 | 0.00 | 46 | 1016.4 |
| 20260502064528 | 50 | 264 | 5.0 | 10.0 | 0.00 | 0.00 | 0.00 | 48 | 1016.5 |
| 20260502063032 | 52 | 29 | 7.0 | 10.0 | 0.00 | 0.00 | 0.00 | 46 | 1016.2 |
| 20260502061526 | 52 | 11 | 7.0 | 12.0 | 0.00 | 0.00 | 0.00 | 45 | 1016.3 |
| 20260502060037 | 53 | 19 | 9.0 | 13.0 | 0.00 | 0.00 | 0.00 | 44 | 1016.3 |
| 20260502054540 | 52 | 5 | 10.0 | 13.0 | 0.00 | 0.00 | 0.00 | 45 | 1016.3 |
| 20260502053029 | 52 | 5 | 7.0 | 11.0 | 0.00 | 0.00 | 0.00 | 44 | 1016.3 |
| 20260502051528 | 53 | 11 | 8.0 | 11.0 | 0.00 | 0.00 | 0.00 | 41 | 1016.4 |
| 20260502050028 | 59 | 317 | 10.0 | 14.0 | 0.00 | 0.00 | 0.00 | 35 | 1016.4 |
| 20260502044528 | 56 | 325 | 11.0 | 15.0 | 0.00 | 0.00 | 0.00 | 38 | 1016.3 |
| 20260502043026 | 53 | 311 | 10.0 | 12.0 | 0.00 | 0.00 | 0.00 | 40 | 1016.3 |
| 20260502041551 | 54 | 329 | 7.0 | 10.0 | 0.00 | 0.00 | 0.00 | 37 | 1016.2 |
| 20260502040043 | 56 | 302 | 8.0 | 11.0 | 0.00 | 0.00 | 0.00 | 36 | 1016.2 |
| 20260502034526 | 56 | 320 | 6.0 | 9.0 | 0.00 | 0.00 | 0.00 | 35 | 1016.1 |
| 20260502033031 | 56 | 300 | 7.0 | 9.0 | 0.00 | 0.00 | 0.00 | 35 | 1016.0 |
| 20260502031526 | 58 | 309 | 7.0 | 10.0 | 0.00 | 0.00 | 0.00 | 31 | 1015.8 |
| 20260502030030 | 60 | 286 | 4.0 | 9.0 | 0.00 | 0.00 | 0.00 | 29 | 1015.8 |
| 20260502024527 | 61 | 253 | 5.0 | 13.0 | 0.00 | 0.00 | 0.00 | 29 | 1015.5 |